Theta_e
307 307 308 308 308 309 310 310 311 312 315 317 317 317 315 316 317 318 318 327 327 327 327 325 331 333 336 336 336 332 335 336 337 335 333 330 334 331 332 341 339 340 338 337 338
307 308 308 308 308 308 309 310 311 312 314 317 317 317 315 316 318 321 329 325 326 326 325 327 328 333 333 334 333 331 333 333 330 332 333 332 334 335 335 337 343 340 337 336 338
308 308 308 308 308 309 309 310 311 312 314 316 318 317 315 315 324 326 328 328 324 325 325 326 328 334 336 335 333 329 331 329 332 334 331 336 340 338 338 339 343 342 337 333 327
310 309 309 308 308 309 309 310 311 313 314 316 318 318 315 318 329 329 327 327 325 325 325 328 330 332 331 333 334 336 332 334 335 333 338 343 342 344 343 344 340 339 335 333 327
310 310 309 309 309 309 310 310 311 313 315 316 318 318 316 320 321 327 327 326 326 325 325 327 328 330 330 332 334 335 335 335 333 339 339 341 342 345 345 343 338 337 335 333 330
310 310 310 309 309 309 310 311 314 316 317 317 318 317 322 324 327 330 328 326 326 326 328 326 327 327 330 333 334 333 333 334 335 337 339 342 343 343 345 345 340 336 334 332 331
309 309 310 310 310 310 311 314 317 319 319 318 318 317 321 322 328 332 328 328 327 327 328 329 328 326 327 333 334 335 335 335 336 338 338 338 343 346 346 346 344 343 340 337 334
309 309 309 309 310 311 314 318 320 322 320 319 318 318 315 325 326 326 326 328 330 331 330 331 328 322 325 331 329 336 335 338 336 339 340 337 345 348 345 346 345 342 342 340 338
309 309 309 309 310 312 318 318 321 321 319 317 320 320 319 325 326 329 328 328 331 330 329 327 326 324 324 327 326 329 336 340 339 342 344 342 343 346 342 342 341 339 339 342 339
309 309 309 310 311 312 318 319 321 321 321 321 322 323 324 326 326 327 328 329 328 327 326 325 322 324 321 323 328 330 335 338 342 343 342 342 345 341 342 344 345 345 343 338 336
309 308 309 310 311 313 317 318 312 313 317 317 319 323 321 324 325 326 327 328 328 325 327 325 324 326 326 324 325 329 333 339 341 343 342 343 342 343 338 344 344 339 342 339 337
308 307 308 309 311 315 315 315 315 314 313 316 316 318 320 322 323 323 328 328 328 328 326 325 326 327 325 325 331 334 338 342 341 339 342 343 343 341 336 339 340 339 342 339 337
307 307 307 309 311 312 313 317 315 316 316 318 318 320 321 322 322 324 326 325 327 327 326 326 326 326 326 325 326 332 336 340 340 341 339 341 343 339 339 340 340 340 340 337 336
306 306 305 308 311 310 314 314 316 317 321 322 321 322 322 322 325 325 326 326 326 327 326 326 326 326 325 327 325 326 330 336 340 335 343 338 342 343 341 341 341 339 337 338 334
305 305 305 306 309 310 314 314 319 320 326 325 322 322 321 323 325 326 326 325 325 326 326 327 326 326 328 328 326 325 334 335 336 339 337 341 342 341 341 340 341 338 336 335 334
304 304 305 309 309 312 314 318 319 326 328 325 321 321 322 322 324 324 326 325 325 326 324 325 325 327 327 326 326 333 333 330 331 332 339 339 341 339 341 340 343 340 337 335 333
304 306 307 308 310 312 314 318 325 332 330 321 320 320 320 321 323 324 325 325 325 327 325 324 326 325 327 330 326 328 328 331 332 339 341 337 338 336 335 340 340 337 337 337 334
304 307 309 311 314 314 317 323 333 333 333 326 318 318 321 320 322 324 326 326 325 324 325 326 327 327 330 332 333 333 329 330 335 338 341 337 342 340 338 338 340 340 339 337 334
305 309 312 318 317 319 316 323 330 332 329 327 320 318 319 319 323 323 324 324 325 324 326 327 328 326 333 332 331 333 333 329 335 333 337 339 340 337 338 339 339 338 337 338 335
307 312 314 321 318 319 314 319 326 329 326 325 330 325 323 319 320 322 323 324 326 324 323 326 327 328 331 331 330 332 329 330 329 339 345 342 343 340 337 339 338 339 338 336 336
310 309 317 320 320 311 309 315 322 323 325 325 327 327 328 329 317 321 323 324 327 326 324 324 324 324 330 329 331 329 331 333 329 332 342 344 341 335 335 334 337 335 332 333 332
306 307 318 321 316 312 315 319 321 325 327 328 325 327 332 332 327 319 323 324 327 325 326 325 324 328 330 331 331 333 335 329 329 336 335 338 339 333 336 338 338 336 332 331 331
303 306 316 318 318 314 315 320 322 324 328 326 328 330 330 333 333 330 327 332 333 330 331 328 330 337 332 330 330 334 334 330 327 328 338 338 339 337 336 336 334 333 333 330 329
306 315 316 314 313 318 321 324 324 325 325 327 326 329 332 336 334 338 338 335 333 334 339 333 333 332 333 333 332 335 333 331 328 330 336 338 339 337 337 337 336 333 330 330 330
307 313 317 319 321 319 325 325 327 327 327 325 329 332 333 337 336 338 338 333 332 332 332 332 337 335 334 335 335 333 333 333 335 334 342 340 340 337 335 337 336 335 333 334 334
312 317 314 317 317 320 321 325 326 329 327 325 329 334 334 336 335 334 338 332 331 331 331 330 332 333 334 337 333 337 337 335 333 336 339 339 342 337 335 336 335 334 335 334 334
311 311 314 316 318 320 321 322 326 329 329 325 329 335 337 338 334 331 331 330 331 332 330 335 335 333 335 337 335 336 338 336 341 343 339 344 339 336 337 335 336 336 334 332 332
Wind_Speed
28 26 25 25 25 25 23 22 22 20 17 18 16 13 11 11 14 9 6 7 1 3 2 2 3 5 5 3 4 4 3 2 4 4 6 5 3 4 1 7 2 5 6 5 24
30 28 27 26 26 25 24 23 22 19 16 16 16 13 11 13 13 9 12 8 8 4 3 3 1 9 3 2 1 4 2 5 4 2 5 4 2 3 4 6 5 4 7 22 29
29 32 29 27 26 26 25 23 22 18 16 15 15 13 11 11 4 5 7 3 7 6 7 4 4 4 3 2 5 5 5 5 3 0 4 9 14 11 6 5 2 4 6 12 19
31 29 32 28 28 27 26 23 22 16 15 14 14 12 11 2 2 2 2 2 4 6 6 3 4 4 3 3 3 4 4 3 3 7 11 16 18 6 1 8 4 7 8 9 11
33 31 32 33 29 29 27 24 20 15 14 14 12 10 4 1 8 4 6 5 6 5 4 2 5 3 5 4 3 2 3 4 7 15 12 16 6 6 3 9 3 5 7 10 13
34 34 35 34 32 30 29 24 18 15 15 13 8 6 1 2 3 5 7 7 9 6 2 4 6 5 4 4 1 3 4 4 9 5 5 10 2 6 2 7 3 2 6 6 5
35 36 37 36 37 31 29 24 24 18 12 8 4 1 1 10 3 3 7 9 13 11 3 7 7 5 2 5 4 3 6 5 3 1 7 13 5 1 4 5 2 1 3 2 5
35 36 38 38 38 32 27 29 16 5 3 4 4 2 6 3 7 13 14 18 16 17 19 20 12 4 4 1 5 5 5 4 3 4 2 3 4 10 6 1 6 5 5 5 2
35 37 38 40 35 30 26 27 6 5 3 3 2 2 7 6 6 10 14 12 7 10 7 6 4 2 6 4 5 6 2 2 7 9 3 3 3 4 3 4 3 4 6 7 7
36 38 39 39 36 27 27 15 7 6 6 4 1 2 4 3 6 15 13 17 4 2 7 8 6 2 3 4 3 4 4 1 2 5 6 6 6 5 1 5 4 6 8 8 8
36 39 39 39 39 20 23 5 8 5 3 5 3 3 4 10 10 7 10 2 3 8 3 3 6 5 8 6 7 3 4 6 2 1 6 5 2 7 11 9 9 8 8 8 9
37 38 40 38 35 11 12 6 5 9 7 8 7 5 12 8 4 6 0 2 3 2 2 6 2 4 8 5 4 3 9 3 2 1 4 5 4 5 7 4 6 8 7 8 8
37 39 40 37 20 12 15 4 20 13 1 7 5 4 5 10 6 6 2 2 1 2 2 3 7 5 4 7 6 1 5 7 6 4 5 5 5 6 3 3 7 8 7 7 7
36 38 39 41 7 25 11 18 22 5 3 5 4 6 4 5 3 6 5 5 1 4 3 4 4 3 7 3 4 2 5 7 14 4 4 3 2 4 4 7 6 10 5 6 7
36 37 38 34 17 9 10 24 23 3 3 1 3 0 3 7 3 1 3 3 6 5 4 6 6 8 6 6 2 5 8 7 5 5 5 1 4 7 2 7 10 8 4 4 8
36 36 39 18 17 13 17 26 2 4 1 1 5 5 4 1 1 3 3 5 2 3 3 6 3 3 5 7 2 10 7 6 4 3 4 4 3 6 3 6 6 6 7 6 9
36 35 36 16 6 14 19 4 4 3 4 2 4 4 2 3 2 2 1 4 2 4 4 7 4 5 2 6 8 10 5 3 3 5 3 4 2 7 6 9 7 8 9 7 6
37 35 25 22 16 16 8 4 4 2 2 5 4 4 5 5 4 2 2 2 2 5 2 1 7 1 5 2 2 2 2 5 4 4 4 3 3 6 5 7 7 6 8 10 9
35 25 16 5 3 2 5 3 4 2 4 6 3 5 2 3 2 4 5 6 7 7 7 4 5 4 3 1 3 1 3 4 6 3 3 3 6 10 5 8 8 10 8 13 8
24 14 12 4 2 4 5 4 3 4 4 5 2 3 4 4 5 4 5 5 5 11 6 5 2 3 4 1 4 2 4 2 3 4 2 4 4 6 6 9 9 9 10 12 5
8 4 8 6 3 5 2 5 6 5 4 1 1 3 4 3 7 6 5 5 4 4 7 5 4 5 3 3 2 3 3 6 5 3 4 2 6 6 7 7 9 9 9 8 7
6 2 4 3 4 1 1 3 6 6 2 4 4 3 1 2 1 6 10 5 0 6 8 4 5 1 1 7 2 3 5 5 4 2 2 4 5 4 5 3 5 10 10 7 8
2 3 4 1 1 3 5 5 4 4 5 5 3 1 3 3 1 2 4 3 7 3 5 5 3 3 8 6 5 3 1 4 5 4 3 5 5 5 5 8 7 8 9 4 7
2 3 4 4 1 3 3 5 5 5 4 4 4 0 2 5 6 2 3 5 5 3 6 8 3 6 6 6 3 3 6 4 4 4 5 4 3 4 5 5 9 11 7 4 6
2 2 2 3 3 4 2 3 5 5 3 7 7 3 4 2 2 3 1 3 6 9 4 5 3 1 2 1 2 3 1 5 4 4 4 4 2 4 4 4 5 6 7 7 6
2 2 4 2 4 4 2 2 4 7 3 7 4 7 3 4 2 5 3 2 2 5 4 4 3 3 2 3 4 3 3 1 2 3 6 7 2 2 4 3 2 5 4 5 5
3 1 3 3 4 2 2 5 6 7 6 5 7 3 4 3 4 3 5 5 2 2 2 3 3 3 2 3 4 3 5 2 2 2 7 5 4 1 1 0 2 2 5 6 7
Wind_Direction
10 7 5 1 357 354 352 352 351 348 347 348 347 342 336 325 313 300 258 248 247 343 250 258 194 191 183 200 208 117 60 235 251 177 237 166 150 178 230 133 140 174 153 198 159
6 4 2 360 354 351 348 348 346 342 341 342 342 337 335 328 319 271 285 251 248 272 233 225 202 135 172 227 152 104 100 235 224 278 241 184 24 184 46 26 25 39 61 116 144
3 2 359 355 352 347 345 345 343 337 334 337 337 334 332 328 341 259 319 232 216 250 247 244 233 163 115 269 180 179 183 235 349 7 92 60 27 353 59 334 210 178 142 131 143
3 356 356 354 348 345 342 341 338 335 328 329 332 329 330 350 221 255 296 216 189 237 286 336 349 18 355 152 258 159 229 261 106 31 86 96 84 41 327 310 229 183 158 143 156
358 356 350 352 347 345 341 337 335 330 323 320 324 321 329 25 250 256 237 223 240 237 248 162 347 349 338 316 266 211 31 44 67 95 104 91 73 127 302 348 214 176 191 179 175
354 354 349 347 347 343 338 335 335 325 312 306 307 322 33 244 284 300 220 229 243 228 214 170 184 222 287 275 122 327 29 77 82 50 95 113 220 149 350 293 97 240 269 283 231
351 351 347 345 346 343 336 339 329 310 297 282 254 321 105 233 275 258 225 250 255 243 242 257 185 196 186 273 172 69 118 92 349 333 130 109 43 32 260 321 134 32 275 263 259
347 347 346 344 346 343 339 343 333 306 252 224 187 161 242 265 277 266 257 254 258 260 254 278 259 184 192 223 5 70 38 46 200 319 336 164 235 218 247 192 77 21 326 288 246
346 347 345 344 347 343 343 350 358 98 119 155 143 140 266 287 277 289 246 237 263 283 261 296 108 76 6 55 2 2 155 283 324 22 1 66 260 93 313 171 176 290 316 328 306
345 346 344 344 347 342 352 357 56 104 78 100 109 48 288 268 301 313 276 246 256 5 1 25 44 42 91 87 246 247 151 202 189 323 26 37 359 348 230 36 1 353 345 345 315
344 344 344 343 345 344 10 7 14 354 11 223 202 250 273 311 294 268 313 187 90 55 17 342 42 352 299 248 202 235 124 110 285 349 56 358 90 322 328 348 343 341 328 329 306
342 343 342 342 343 357 14 78 104 284 302 255 243 260 267 271 315 301 142 130 69 277 359 6 322 260 277 28 83 116 112 115 6 65 86 340 338 278 12 313 288 300 313 314 305
339 341 342 341 344 351 342 33 346 359 222 294 216 194 225 158 210 263 114 136 207 290 71 160 261 315 35 349 71 265 153 181 151 119 67 134 311 349 342 330 296 298 266 283 297
335 338 341 341 351 334 309 337 336 354 45 272 237 255 186 189 266 222 201 153 340 234 194 236 287 326 342 282 148 306 202 149 138 111 167 174 247 296 281 313 289 262 274 355 338
332 334 335 338 310 305 309 325 331 116 29 181 190 319 144 157 186 221 156 85 210 203 105 262 306 327 332 260 167 209 94 104 168 112 105 347 75 272 23 277 278 281 327 358 333
328 330 330 328 307 300 320 327 8 43 19 216 154 182 127 171 246 330 49 48 122 135 356 232 252 230 233 286 249 143 89 76 53 81 59 303 116 284 280 246 287 306 303 356 345
325 327 320 304 264 299 322 349 36 105 334 288 197 162 131 153 257 106 2 335 139 38 345 326 295 289 266 355 76 39 76 11 1 29 218 279 80 241 250 244 242 278 310 324 316
325 325 317 302 287 292 325 51 58 279 310 301 151 71 167 169 231 179 137 256 166 92 91 217 335 6 323 182 227 74 173 148 212 164 209 331 237 251 269 293 284 292 288 289 275
328 327 312 323 345 72 62 62 211 243 336 320 32 85 294 245 212 146 204 218 214 167 171 172 271 306 226 185 143 260 43 162 107 39 84 261 284 312 221 292 286 283 280 270 252
328 318 309 332 177 53 65 248 251 235 337 330 93 181 205 224 160 155 199 229 219 184 156 209 292 245 289 78 30 121 140 61 25 139 156 291 267 240 299 277 286 276 273 275 279
333 359 2 80 132 46 134 251 284 242 314 232 308 296 229 227 194 184 211 280 222 152 154 138 116 290 8 3 241 352 25 48 109 112 145 174 266 217 240 263 281 286 282 283 289
351 352 1 341 42 33 258 227 289 305 291 273 215 235 292 266 306 224 201 236 58 166 167 170 148 173 248 309 252 156 169 145 113 211 122 146 274 263 242 230 279 281 288 300 299
13 268 350 7 122 315 297 286 270 309 331 320 280 120 29 329 108 197 162 33 2 90 144 184 31 37 351 347 354 22 338 102 108 97 185 137 261 331 328 320 312 287 308 293 302
49 355 322 37 57 137 347 280 311 265 258 307 285 283 94 10 10 61 54 13 354 75 80 86 98 153 170 212 209 1 326 161 127 117 174 213 263 334 2 354 336 356 7 21 15
44 283 171 313 352 342 336 278 301 325 341 2 353 7 250 93 46 20 21 5 25 348 44 94 136 195 167 279 104 128 335 338 131 168 131 189 103 333 8 42 328 322 4 21 3
102 35 349 291 309 337 27 339 311 323 294 307 298 317 330 111 179 200 164 124 200 3 63 6 174 180 182 357 156 94 313 48 47 107 80 112 92 347 8 358 356 13 6 359 329
15 32 111 300 344 53 18 319 291 337 277 236 292 107 30 345 218 205 107 68 112 108 129 81 111 76 272 332 86 332 248 256 272 84 136 140 193 129 21 191 14 345 354 332 329